English version Home page |
Updated on October 14, 2023 |
|
軌道要素Epoch 2023 Feb. 25.0 TT = JDT 2460000.5 T 2021 Sept. 15.84104 TT Rudenko q 5.8688745 (2000.0) P Q z -0.0006278 Peri. 44.33611 +0.10931113 -0.41368160 +/-0.0000018 Node 291.54878 -0.93608226 +0.26302571 e 1.0036843 Incl. 103.64982 +0.33436668 +0.87159911 >From 176 observations 2020 May 26-2023 Jan. 29, mean residual 0".5.
|
光度変化m1 = 7.5 + 5 logΔ + 10.0 log r
|
軌道要素はM.P.E.C. 2023-C45に掲載されたものです。
|